This is the latest recevied weather packets stored in our database for station/object DL9RAN-11. If no packets are shown the sender has not sent any weather packets the latest 10 day(s).
| Time | Temp. | Humidity | Pressure | Rain* | Wind** | Luminosity | Snow |
|---|---|---|---|---|---|---|---|
| 1777812680 | 24.44° C | 36% | 1017.3 hPa | - | - | - | - |
| 1777810724 | 24.44° C | 37% | 1017.7 hPa | - | - | - | - |
| 1777810424 | 24.44° C | 37% | 1017.8 hPa | - | - | - | - |
| 1777809130 | 24.44° C | 37% | 1017.9 hPa | - | - | - | - |
| 1777807505 | 24.44° C | 37% | 1018.3 hPa | - | - | - | - |
| 1777807204 | 24.44° C | 37% | 1018.4 hPa | - | - | - | - |
| 1777806904 | 24.44° C | 37% | 1018.4 hPa | - | - | - | - |
| 1777806604 | 23.89° C | 37% | 1018.4 hPa | - | - | - | - |
| 1777805641 | 23.89° C | 38% | 1018.4 hPa | - | - | - | - |
| 1777805009 | 23.89° C | 38% | 1018.4 hPa | - | - | - | - |
| 1777804709 | 23.89° C | 39% | 1018.5 hPa | - | - | - | - |
| 1777803747 | 23.89° C | 39% | 1018.5 hPa | - | - | - | - |
| 1777803115 | 22.78° C | 40% | 1018.7 hPa | - | - | - | - |
| 1777802815 | 22.78° C | 40% | 1018.8 hPa | - | - | - | - |
| 1777801852 | 22.78° C | 40% | 1019 hPa | - | - | - | - |
| 1777801552 | 22.78° C | 40% | 1019 hPa | - | - | - | - |
| 1777800920 | 22.22° C | 40% | 1019 hPa | - | - | - | - |
| 1777800289 | 21.67° C | 40% | 1019 hPa | - | - | - | - |
| 1777799657 | 21.67° C | 40% | 1019 hPa | - | - | - | - |
| 1777799026 | 21.11° C | 41% | 1019 hPa | - | - | - | - |
| 1777798394 | 20.56° C | 41% | 1019 hPa | - | - | - | - |
| 1777798094 | 20.56° C | 41% | 1019 hPa | - | - | - | - |
| 1777797463 | 20.56° C | 42% | 1019.1 hPa | - | - | - | - |
| 1777797162 | 20° C | 42% | 1019.1 hPa | - | - | - | - |
| 1777796531 | 20° C | 43% | 1019.1 hPa | - | - | - | - |
* Rain since midnight (hover to see other rain measurements)
** Current wind speed in m/s (hover to see current wind gust speed)